Regional Weather Roundup
Issued by NWS

Home | Current Version | Previous Version | Graphics & Text | Print | Product List | Glossary On
Versions: 1 2 3 4 5 6 7 8 9 10 11 12 13 14 15 16 17 18 19 20 21 22 23 24 25 26 27 28 29 30 31 32 33 34 35 36 37 38 39 40 41 42 43 44 45 46 47 48 49 50
000
ASUS45 KBOU 011507
RWRCO

WEATHER ROUNDUP FOR COLORADO
NATIONAL WEATHER SERVICE DENVER/BOULDER CO
900 AM MDT WED APR 01 2015

NOTE: "FAIR" INDICATES FEW OR NO CLOUDS BELOW 12000 FEET WITH NO
SIGNIFICANT WEATHER AND/OR OBSTRUCTIONS TO VISIBILITY.

COZ001>005-013-030-031-011600-
...NORTHWEST COLORADO...

CITY           SKY/WX    TMP DP  RH WIND       PRES   REMARKS
CRAIG          CLOUDY    50  27  40 NW8G21    29.92R
HAYDEN         MOSUNNY   50  27  40 W20G26    29.90S
MEEKER         CLOUDY    48  30  49 S3        29.90R
MOUNT WERNER   NOT AVBL
STEAMBOAT SPGS MOSUNNY   49  29  45 NW5       29.88S
WALDEN         MOSUNNY   46  27  46 W12       29.90S
$$

COZ006>008-011-011600-
...WEST CENTRAL VALLEYS...

CITY           SKY/WX    TMP DP  RH WIND       PRES   REMARKS
GRAND JUNCTION MOSUNNY   60  23  24 SE12      29.84S
MONTROSE       PTSUNNY   61  25  25 SW13      29.92S
EAGLE          MOSUNNY   39  27  60 CALM      29.93F
RIFLE          PTSUNNY   46  28  49 CALM      29.87S
DELTA          MOSUNNY   58  25  28 NE6       29.90S
NUCLA          MOSUNNY   55  25  30 CALM      29.98R
$$

COZ017>023-064>068-011600-
...SOUTHWEST COLORADO...

CITY           SKY/WX    TMP DP  RH WIND       PRES   REMARKS
DURANGO        SUNNY     49  29  46 CALM      30.01S
CORTEZ         SUNNY     58  29  33 S18       29.98S
PAGOSA SPRINGS SUNNY     48  22  35 S6        30.05S
TELLURIDE      NOT AVBL
WOLF CREEK PAS SUNNY     30  19  64 SW20G31   30.17S WCI  18
$$

COZ009-010-012-014-032>034-037-058>063-011600-
...CENTRAL COLORADO...

CITY           SKY/WX    TMP DP  RH WIND       PRES   REMARKS
ASPEN          PTSUNNY   48  23  37 VRB5      29.96R
BUENA VISTA    SUNNY     54  17  23 W12G28    29.94R
COPPER MTN     CLOUDY    36  16  44 W21G26    30.06F
BERTHOUD PASS  FAIR      28  21  74 NW33G53   30.04F WCI  12
COTTONWOOD PAS SUNNY     46  14  27 W20G26    30.00S
GUNNISON       SUNNY     36  25  64 CALM      30.03S
KREMMLING      MOSUNNY   41  27  56 E3        29.91F
LEADVILLE      NOT AVBL
SALIDA         SUNNY     58  20  23 SW18G24   30.00F
SUNLIGHT       PTSUNNY   37  23  56 S3        30.07F
WILKERSON PASS SUNNY     36  18  48 SW10G16   30.06S
$$

COZ069>075-011600-
...SAN LUIS VALLEY/SANGRE DE CRISTO MOUNTAINS...

CITY           SKY/WX    TMP DP  RH WIND       PRES   REMARKS
ALAMOSA        MOSUNNY   53  23  31 S13       29.99S
LA VETA PASS   PTSUNNY   34  21  60 SW7       30.03R WCI  28
SAGUACHE       MOSUNNY   41  21  45 CALM      30.01F
$$

COZ035-036-038>040-011600-
...NORTHERN COLORADO FRONT RANGE...

CITY           SKY/WX    TMP DP  RH WIND       PRES   REMARKS
DENVER INTL AP CLOUDY    57  27  31 SW8       29.78S
DMNS CITY PARK   N/A     63  24  22 SE1G8     29.78S
AURORA         PTSUNNY   59  26  28 S8        29.80S
FRONT RANGE AP PTSUNNY   57  30  35 SW9       29.79S
ERIE MUNI ARPT PTSUNNY   64  25  23 NW5       29.77R
BOULDER MUN AP PTSUNNY   63  25  23 CALM      29.77R
CENTENNIAL     PTSUNNY   59  25  27 S10       29.80S
BROOMFIELD     PTSUNNY   59  27  29 CALM      29.80R
FORT COLLINS   CLOUDY    59  30  33 NE6       29.78R
LONGMONT       CLOUDY    68  20  16 W18G26    29.76F
$$

COZ041-046-047-076>085-087-088-011600-
...PIKES PEAK/PALMER DIVIDE AND SOUTHERN FOOTHILLS...

CITY           SKY/WX    TMP DP  RH WIND       PRES   REMARKS
COLO. SPRINGS  PTSUNNY   58  25  28 N5        29.85F
A. F. ACADEMY  MOSUNNY   55  24  29 N9        29.85F
ELLICOTT       NOT AVBL
FALCON         PTSUNNY   58  20  22 W6        29.88S
FORT CARSON    PTSUNNY   53  26  35 N6        29.82S
LIMON          CLOUDY    60  27  28 NW9       29.78F
MONUMENT HILL  CLOUDY    52  23  32 SW9       29.87S
TRINIDAD       PTSUNNY   63  27  25 W10       29.86S
$$

COZ042>045-048>051-090-091-011600-
...NORTHEAST COLORADO...

CITY           SKY/WX    TMP DP  RH WIND       PRES   REMARKS
GREELEY ARPT   CLOUDY    54  27  35 CALM      29.74S
AKRON          CLOUDY    59  27  29 W12       29.72S
BURLINGTON     MOSUNNY   68  32  26 SW15      29.73S
WRAY           MOSUNNY   62  30  30 SW7       29.69S
STERLING       CLOUDY    52  32  46 CALM      29.71F
HOLYOKE        MOSUNNY   66  32  28 W12       29.67R
FORT MORGAN    CLOUDY    54  27  34 W3        29.74R
$$

COZ086-089-092>099-011600-
...SOUTHEAST COLORADO...

CITY           SKY/WX    TMP DP  RH WIND       PRES   REMARKS
PUEBLO         CLOUDY    51  31  46 SE3       29.79S
LA JUNTA       MOSUNNY   60  27  28 W9        29.77S
LAMAR          MOSUNNY   56  33  42 NW3       29.73F
SPRINGFIELD      N/A     71  26  18 W10       29.77F
$$



USA.gov is the U.S. government's official web portal to all federal, state and local government web resources and services.